Location: Moscow
(38.8570°N, 84.2291°W)
Time: 13:36:04
(UTC+00:00)

AO-7 - Visible Passes

Search period start: 10 March 2026 00:00
Search period end: 20 March 2026 00:00
Orbit: 1440 x 1458 km, 102.0° (Epoch: 10 March)

Date Brightness Start Highest point End Pass type
(mag) Time Alt. Az. Time Alt. Az. Time Alt. Az.
10 Mar ? 00:34:27 10° SSW 00:40:59 25° W 00:47:35 10° NW visible
10 Mar ? 10:43:57 10° NE 10:50:00 21° E 10:56:00 10° SE visible
12 Mar ? 00:26:53 10° SSW 00:33:45 29° W 00:40:42 10° NW visible
12 Mar ? 10:37:14 10° NE 10:42:46 19° E 10:48:15 10° SE visible
13 Mar ? 01:25:46 10° W 01:27:26 11° W 01:29:06 10° WNW visible
14 Mar ? 00:19:22 10° SSW 00:26:32 32° W 00:33:48 10° NW visible
14 Mar ? 10:30:36 10° NE 10:35:30 17° E 10:40:22 10° SE visible
15 Mar ? 01:16:52 10° WSW 01:20:09 13° W 01:23:27 10° WNW visible
15 Mar ? 11:21:17 10° NNE 11:28:59 39° E 11:36:37 10° SSE visible
16 Mar ? 00:11:55 10° SSW 00:19:19 36° W 00:26:50 10° NW visible
16 Mar ? 10:24:07 10° ENE 10:28:14 14° E 10:32:19 10° ESE visible
17 Mar ? 01:08:36 10° WSW 01:12:52 15° W 01:17:10 10° WNW visible
17 Mar ? 11:14:18 10° NE 11:21:47 35° E 11:29:11 10° SSE visible
18 Mar ? 00:04:30 10° SSW 00:12:07 40° W 00:19:51 10° NNW visible
18 Mar ? 10:17:55 10° ENE 10:20:57 12° E 10:23:59 10° ESE visible
19 Mar ? 01:00:36 10° SW 01:05:36 17° W 01:10:39 10° NW visible
19 Mar ? 11:07:22 10° NE 11:14:35 31° E 11:21:43 10° SSE visible
